Theta_e
323 322 322 322 321 321 320 320 320 320 320 321 321 322 321 320 320 320 320 321 321 321 322 321 321 320 304 294 295 304 320 314 309 308 302 299 294 293 290 290 291 289 290 292 293 294 292
323 322 322 321 321 321 321 320 319 319 320 320 320 320 320 320 319 319 319 320 320 322 321 320 321 318 299 293 301 304 305 306 305 303 300 299 296 295 292 290 289 289 291 292 292 292 293
322 322 322 321 321 321 321 320 320 319 319 319 319 319 319 320 319 318 318 319 320 322 321 321 320 306 297 298 302 303 305 304 304 303 299 300 299 295 294 291 293 293 289 289 290 291 290
322 322 322 321 321 321 321 321 320 320 319 319 318 318 319 319 319 318 318 318 320 320 320 321 321 300 294 303 302 302 303 304 305 303 301 301 301 297 294 293 291 288 287 283 288 290 290
324 323 322 321 321 320 321 322 321 320 320 319 318 317 318 319 319 318 318 318 320 320 320 320 302 297 295 308 300 301 301 301 302 303 301 305 300 294 292 288 285 285 282 283 286 290 289
325 325 324 323 322 321 321 321 321 321 320 319 318 318 318 318 318 318 318 319 317 314 310 307 301 295 297 296 299 301 301 303 300 301 300 299 294 289 288 286 281 282 281 283 283 287 287
322 323 324 324 323 322 322 321 322 321 321 320 319 317 317 318 318 318 311 302 299 299 297 294 293 294 297 299 302 299 301 301 300 297 291 293 290 286 287 287 287 286 283 283 284 287 286
318 319 321 322 324 324 323 322 322 321 321 320 318 317 317 318 318 316 304 295 296 298 293 297 296 297 298 299 296 299 302 296 295 291 292 290 287 290 291 289 287 285 283 283 284 287 286
317 318 318 318 320 320 323 323 322 321 321 320 318 317 317 317 316 306 300 299 306 304 294 296 297 297 297 299 295 295 299 297 293 290 290 288 288 292 290 286 286 283 283 282 282 284 284
314 316 317 317 317 318 319 320 322 322 320 319 318 317 316 316 305 300 298 304 305 304 286 290 293 296 298 298 294 299 299 296 293 290 290 289 291 290 288 287 287 283 286 285 284 282 279
312 313 314 315 316 316 317 318 319 321 320 319 318 318 316 315 299 298 302 304 304 297 276 293 293 300 298 294 295 295 299 296 291 290 290 287 288 287 287 288 287 285 287 284 283 281 278
309 310 311 313 314 315 316 316 317 317 318 319 318 317 316 307 299 300 304 304 300 286 277 289 293 292 292 293 294 296 296 297 295 291 290 288 291 289 288 289 288 288 286 284 282 280 276
305 307 309 310 312 314 314 315 315 316 316 316 318 317 314 309 296 302 304 296 286 278 289 288 289 291 291 290 291 292 291 290 288 284 284 286 287 288 289 286 287 286 282 278 276 274 277
304 305 306 307 309 311 313 314 314 315 315 314 314 316 312 309 303 303 300 291 279 285 286 290 290 290 288 291 289 290 288 287 288 288 282 282 282 287 289 286 285 283 282 278 274 272 275
303 303 304 306 307 308 310 311 312 313 313 313 313 309 304 306 305 302 294 282 282 286 291 289 289 286 287 289 289 288 286 286 289 290 287 282 283 287 287 287 286 283 281 282 277 273 272
304 304 302 304 306 307 308 309 310 312 312 313 307 305 302 307 305 300 290 287 286 291 292 290 287 287 284 286 287 286 286 289 290 290 289 287 281 284 286 287 286 283 285 279 278 274 273
304 303 304 302 304 305 306 307 308 310 311 311 306 299 303 306 304 296 286 284 288 293 294 290 289 286 286 286 287 284 286 288 290 287 289 286 284 281 284 283 282 282 280 280 280 279 274
303 303 303 303 304 303 304 305 307 308 309 308 302 294 303 303 292 291 287 287 293 292 293 292 290 290 288 288 286 285 286 288 291 290 287 287 283 278 281 284 285 283 282 282 279 277 273
302 302 302 302 303 303 303 304 305 306 307 302 295 297 303 301 288 287 288 291 293 291 291 291 289 291 291 289 287 287 288 289 290 290 287 288 283 279 280 281 282 281 282 282 281 279 274
302 301 301 302 303 303 302 303 304 305 306 302 295 289 297 296 295 290 290 290 290 293 293 292 291 291 289 288 289 288 287 289 290 290 296 294 284 283 282 282 282 280 281 282 283 276 277
303 303 302 302 301 302 302 302 302 303 305 300 295 290 294 289 291 291 291 291 290 289 292 293 289 289 289 287 288 288 286 286 289 294 289 288 283 282 283 283 282 282 282 282 282 285 280
302 302 302 302 302 301 302 301 302 302 303 296 290 289 290 288 291 290 290 289 290 290 289 288 288 290 291 290 292 288 287 286 286 285 286 286 283 283 281 283 283 282 284 283 283 285 284
301 301 301 302 302 302 302 302 301 300 301 294 297 297 290 288 287 286 288 289 290 293 293 294 292 291 289 292 293 290 291 290 289 285 284 284 282 281 278 281 280 278 284 284 287 284 285
302 301 301 301 301 302 302 302 301 300 300 296 295 294 285 282 286 287 289 288 288 291 290 292 292 291 292 293 294 292 289 286 285 283 285 283 284 282 276 278 276 283 283 287 287 288 286
301 301 301 301 301 301 301 301 300 299 300 296 296 293 285 282 286 286 287 288 289 289 290 293 293 294 295 294 289 285 285 282 281 278 280 283 284 280 279 278 281 285 282 282 282 283 288
302 302 302 302 302 301 301 301 301 300 300 296 296 295 290 284 283 288 286 288 287 286 288 290 290 292 295 291 287 283 280 281 280 276 280 284 285 284 281 279 275 281 281 283 284 278 285
303 303 302 302 302 302 300 301 301 301 300 296 295 296 292 283 287 288 286 286 292 290 288 287 288 288 292 288 285 282 283 284 280 278 277 280 281 283 283 282 282 285 282 283 279 281 281
303 303 302 302 301 301 301 301 301 301 300 296 294 296 292 286 288 292 293 290 290 289 285 289 288 287 287 286 287 283 283 283 280 280 278 281 281 281 283 281 280 282 280 283 286 279 281
302 302 303 302 302 301 301 300 300 300 300 299 291 297 298 290 289 294 294 295 293 294 290 289 289 288 290 288 285 285 283 281 280 278 279 281 284 282 285 285 284 285 283 282 282 281 280
Wind_Speed
17 17 18 18 19 19 19 19 20 20 19 20 20 18 16 13 12 11 10 9 9 9 7 7 6 5 1 1 7 1 6 6 3 3 2 2 2 4 4 4 2 3 4 2 2 3 3
15 16 16 17 18 18 19 19 18 19 20 20 20 20 18 15 13 12 11 11 9 8 8 7 5 1 2 3 2 4 4 2 3 2 2 2 5 4 6 3 2 3 3 3 2 3 3
15 16 16 16 16 17 18 18 18 18 18 19 20 20 19 17 14 12 12 11 11 8 8 6 4 2 2 10 3 2 4 1 1 2 3 2 5 3 4 4 4 5 4 1 2 2 2
17 17 17 17 17 16 17 17 17 18 18 17 18 19 19 18 17 14 11 11 9 9 8 6 2 1 7 2 3 2 3 1 3 1 3 3 4 7 4 4 5 4 4 2 3 5 0
16 17 17 18 18 17 17 16 17 17 18 19 18 17 18 17 17 15 13 10 11 9 7 4 1 3 8 2 2 2 2 3 1 2 3 3 6 4 3 6 4 4 3 4 4 6 3
17 15 15 16 17 18 18 18 18 18 18 18 18 17 16 16 16 15 13 7 2 3 2 1 1 2 2 4 2 2 1 2 3 4 3 5 5 4 3 4 6 6 4 4 5 4 4
21 20 18 14 14 16 18 18 18 19 19 18 18 18 18 17 17 12 7 3 5 3 1 9 5 3 1 1 1 1 1 4 3 4 4 2 3 7 10 6 3 5 4 4 3 2 3
24 23 22 20 18 15 16 17 17 18 19 19 19 18 20 20 18 5 2 2 2 1 7 6 3 4 2 3 2 3 3 5 5 6 5 4 7 5 6 4 4 4 4 5 3 1 1
24 24 24 23 23 22 18 16 17 16 18 19 20 20 20 22 14 5 2 1 1 1 2 6 5 4 4 6 5 7 6 4 4 6 6 7 3 7 5 3 5 4 6 4 4 2 2
25 25 24 24 24 23 21 20 18 17 16 16 18 20 21 28 3 2 1 2 2 1 3 7 5 5 4 4 2 3 2 3 2 10 8 5 4 6 4 5 6 4 3 4 3 4 4
26 27 26 25 23 22 22 22 21 20 18 15 16 18 19 14 5 1 3 1 2 3 3 3 3 1 3 6 6 0 0 2 7 6 6 5 8 6 4 4 6 4 3 3 2 3 3
25 25 26 26 25 24 22 22 23 21 22 17 16 15 15 5 3 4 3 3 4 7 9 3 4 6 5 2 3 4 3 4 4 5 3 2 0 3 3 3 3 6 5 6 5 3 2
23 25 26 26 25 23 23 22 22 23 22 22 19 16 9 2 6 4 3 4 5 6 3 6 6 5 4 6 4 5 6 5 7 6 5 1 3 2 3 6 3 4 5 3 5 2 7
24 25 25 27 27 25 23 23 23 23 23 21 24 19 6 6 2 3 3 5 6 5 7 2 4 4 7 8 4 5 6 5 5 4 4 8 5 9 5 5 8 6 7 7 7 4 4
23 22 25 26 28 27 26 25 24 23 23 23 23 3 4 4 7 2 3 5 11 9 5 8 2 4 6 5 6 5 8 7 10 13 10 7 5 2 2 2 3 6 5 3 7 3 3
25 25 24 25 26 27 27 26 26 24 23 21 8 3 5 6 11 0 2 13 8 6 7 5 10 7 8 7 7 9 9 6 7 10 1 7 4 1 1 2 2 4 5 4 2 4 5
25 25 25 25 25 26 27 27 26 25 24 26 4 3 2 5 4 3 9 9 8 6 5 9 9 5 7 8 8 6 6 4 5 6 3 6 4 0 3 8 10 4 3 2 3 4 6
25 25 25 25 24 25 26 26 26 26 25 13 4 5 2 3 4 4 15 9 8 5 2 6 3 7 10 8 8 7 10 6 8 11 11 7 6 6 7 1 3 3 7 7 6 6 1
26 26 26 26 23 23 24 25 25 25 23 9 4 5 2 3 7 9 4 7 9 7 9 8 9 8 6 10 4 9 7 1 8 10 12 10 4 4 1 2 2 6 6 4 5 4 8
25 25 25 25 24 22 23 22 23 24 24 8 4 4 2 3 6 6 15 14 12 5 13 8 6 5 4 6 5 5 7 0 4 5 3 6 5 8 10 5 7 6 7 8 7 5 6
28 27 27 26 24 24 22 21 22 23 22 8 4 4 2 3 6 15 15 7 21 14 7 11 4 8 9 7 4 6 2 3 2 5 4 4 7 4 4 3 5 6 6 12 16 16 11
28 28 29 27 26 24 22 19 21 20 22 5 5 4 5 5 10 15 15 21 26 13 11 7 9 10 11 18 14 10 8 5 7 4 6 3 3 5 4 3 6 5 8 11 18 18 20
29 29 30 29 28 26 21 19 20 19 16 4 3 2 2 4 7 8 6 13 21 11 8 15 17 11 8 14 2 2 1 2 4 12 11 8 8 5 5 3 2 6 21 18 14 8 15
30 31 30 30 28 27 24 21 20 18 16 7 5 6 3 9 8 7 8 16 18 18 23 6 4 11 6 12 9 7 9 8 6 5 2 8 8 3 3 2 7 6 2 5 18 14 13
32 32 31 29 28 28 26 24 22 20 21 9 5 4 4 5 6 14 17 13 17 17 23 22 9 6 14 5 6 1 1 0 3 3 2 2 5 4 6 6 8 8 6 8 9 9 19
33 32 31 30 26 25 26 26 23 22 20 11 7 4 4 5 8 17 12 8 6 6 11 5 0 4 6 5 4 10 9 6 7 1 2 1 3 3 4 5 9 7 4 4 4 8 7
34 32 31 30 29 26 25 25 25 24 22 11 9 6 6 6 8 8 9 10 3 4 6 4 4 3 2 6 5 6 8 5 7 11 8 4 1 12 7 6 7 6 7 6 5 9 4
33 32 32 29 29 28 27 24 24 24 23 14 9 5 4 7 11 10 8 10 6 5 5 5 3 3 4 7 8 6 5 9 4 5 9 13 11 6 4 6 15 7 6 10 5 3 6
33 31 30 28 28 28 27 26 25 23 23 18 12 8 6 8 8 5 10 19 23 23 6 4 8 9 6 6 3 4 3 3 7 7 1 6 8 9 12 9 1 16 3 4 4 5 6
Wind_Direction
19 16 16 13 11 9 8 12 8 7 9 7 4 3 357 345 334 323 306 290 287 287 286 304 321 331 79 352 253 320 350 344 103 121 106 147 125 118 145 132 83 101 178 122 79 119 114
12 11 10 9 7 6 4 4 8 4 3 5 1 359 358 352 341 327 312 297 283 274 279 289 300 320 132 247 150 1 345 13 46 122 128 149 194 163 111 99 134 113 108 114 187 155 147
6 4 2 1 3 1 1 0 358 0 1 358 359 356 352 354 345 335 316 306 297 288 286 290 296 237 172 234 164 348 14 105 20 162 145 187 140 88 126 101 161 132 94 18 215 184 181
358 357 355 354 353 354 354 353 353 353 352 355 354 353 351 349 344 335 322 305 290 283 279 275 258 233 240 158 159 74 345 122 15 72 107 117 115 103 82 114 36 73 62 138 235 154 139
357 354 350 348 347 346 347 347 345 346 346 346 346 348 345 344 341 332 319 301 283 275 260 266 184 156 272 124 174 163 139 157 279 100 76 92 66 88 71 98 33 4 214 206 292 199 136
1 347 344 344 343 342 342 342 340 339 340 339 338 337 337 335 334 330 314 283 284 323 58 160 33 33 245 229 166 147 123 117 130 116 77 48 57 83 44 101 207 200 217 227 230 228 177
356 2 355 334 336 337 337 336 335 334 332 331 332 331 330 329 330 332 345 29 17 319 211 196 203 219 202 121 76 82 108 113 102 69 160 20 100 206 210 190 153 142 186 215 224 178 199
359 354 351 354 345 331 330 328 329 331 329 328 327 327 326 326 330 354 74 78 123 163 304 211 229 272 230 168 152 224 150 147 155 177 127 42 229 202 126 156 157 160 170 240 283 132 175
354 351 350 349 347 349 333 324 321 325 327 327 326 326 326 323 318 44 2 46 342 202 243 270 195 186 197 141 212 206 162 159 143 142 180 166 208 141 138 158 157 202 181 193 207 330 248
347 347 349 347 345 346 342 338 318 319 322 323 324 325 328 327 24 270 358 321 346 302 32 258 221 245 119 143 242 166 197 143 103 186 159 220 150 159 162 191 149 217 168 119 110 68 240
348 346 344 343 342 342 342 342 340 326 318 318 318 323 326 332 290 238 194 159 304 62 19 220 189 155 149 168 138 169 143 97 168 164 134 232 165 164 172 213 174 208 102 97 90 95 13
343 342 341 340 339 335 336 338 339 338 334 312 311 316 333 318 284 252 168 122 65 50 248 202 147 178 140 192 178 137 142 60 135 108 50 101 36 177 183 75 67 139 75 52 54 85 323
337 337 336 334 335 334 333 336 337 335 335 331 312 305 314 152 261 162 183 61 52 169 279 203 194 173 181 182 190 174 166 171 161 124 206 78 207 155 139 93 50 92 87 323 340 13 228
340 333 332 332 331 331 332 331 333 332 331 332 331 304 254 195 233 210 97 57 193 228 233 51 137 110 188 159 218 171 144 201 224 116 118 164 278 170 178 189 176 179 166 167 216 204 263
336 332 333 335 331 329 330 331 328 327 331 329 322 269 252 233 168 249 120 193 201 200 178 152 53 170 219 210 169 156 204 214 196 178 179 153 258 74 67 133 132 189 192 164 105 58 47
332 336 330 327 332 331 329 329 328 326 325 329 310 262 243 164 140 163 202 228 218 211 140 146 199 170 196 190 170 179 181 212 204 186 119 200 117 295 159 128 45 165 160 86 3 185 247
327 326 327 324 326 330 329 330 328 329 327 321 261 255 245 121 117 156 224 220 225 237 169 167 204 203 214 185 184 208 212 267 176 142 122 140 115 197 128 207 174 146 191 91 132 160 178
318 320 321 324 323 326 328 327 331 329 332 306 281 257 32 135 169 181 226 185 186 205 202 249 228 196 186 184 191 214 216 240 159 148 164 191 124 171 196 228 167 173 185 162 144 211 188
316 316 315 314 317 322 321 326 328 332 329 309 264 267 115 338 215 218 271 244 223 169 185 197 219 201 180 188 213 202 203 355 165 163 165 181 195 112 5 344 325 207 195 147 114 92 200
310 308 309 311 312 311 315 321 326 326 331 323 278 271 236 193 258 266 232 230 236 232 225 175 197 138 149 207 247 229 216 132 194 190 170 126 168 180 199 177 132 189 188 176 152 161 159
305 303 305 307 310 308 309 315 322 323 325 322 261 264 238 279 245 257 271 253 226 231 226 204 199 201 170 201 195 214 151 92 13 185 129 175 206 158 230 159 156 183 170 185 204 208 190
305 306 306 303 301 304 303 308 311 319 322 272 271 278 349 320 293 273 260 238 248 243 167 214 185 202 203 221 201 197 140 184 194 176 168 220 179 125 254 195 209 233 225 208 220 230 243
298 299 301 301 299 297 298 298 304 312 324 277 277 267 239 261 285 285 275 261 265 255 249 238 217 192 203 236 179 30 131 123 172 166 182 162 135 143 254 134 166 274 235 198 219 206 217
296 294 292 293 295 296 292 292 296 302 301 283 284 291 228 276 258 250 263 290 296 287 259 236 178 191 187 120 109 62 57 59 59 20 152 155 144 137 162 124 250 244 191 191 220 239 210
288 287 286 287 287 288 293 290 291 291 290 285 284 278 250 251 274 271 271 274 282 297 289 249 222 185 144 101 97 105 282 128 216 16 336 332 143 155 170 205 318 285 205 170 178 264 219
286 283 283 283 282 282 284 286 282 282 286 284 267 246 246 266 243 252 263 269 274 305 289 242 44 191 147 127 145 197 210 183 206 189 10 15 13 150 158 206 227 241 173 166 141 284 217
283 283 282 280 278 277 274 279 283 280 280 278 273 255 262 263 246 237 255 266 179 242 272 314 198 209 63 154 180 170 219 163 181 170 169 151 185 213 199 230 272 224 158 150 136 243 155
280 279 277 276 274 274 274 274 274 276 276 278 275 217 236 274 260 231 235 228 219 195 260 306 242 270 106 188 189 187 172 203 157 164 175 172 166 188 191 217 252 140 73 187 198 55 135
279 276 274 272 272 270 271 272 273 273 272 272 272 249 248 260 263 211 240 245 242 245 175 219 288 304 187 170 189 126 170 137 152 216 213 210 190 178 190 210 147 187 196 144 131 141 173